Time,TemperatureF,DewpointF,PressureIn,WindDirection,WindDirectionDegrees,WindSpeedMPH,WindSpeedGustMPH,Humidity,HourlyPrecipIn,Conditions,Clouds,dailyrainin,SoftwareType,DateUTC
2013-02-25 00:07:00,56.5,47.2,28.84,NNE,22,0.0,0.0,71,0.00,,,0.00,open2300-1.11,2013-02-24 22:07:00,
2013-02-25 00:17:00,56.3,47.4,28.83,NNE,22,0.0,0.0,72,0.00,,,0.00,open2300-1.11,2013-02-24 22:17:00,
2013-02-25 00:27:00,56.1,47.5,28.83,NNE,22,0.0,0.0,73,0.00,,,0.00,open2300-1.11,2013-02-24 22:27:00,
2013-02-25 00:32:00,56.1,47.9,28.83,NNE,22,0.0,0.0,74,0.00,,,0.00,open2300-1.11,2013-02-24 22:32:00,
2013-02-25 00:52:00,55.8,47.9,28.84,NNE,22,0.0,0.0,75,0.00,,,0.00,open2300-1.11,2013-02-24 22:52:00,
2013-02-25 00:57:00,55.8,47.9,28.84,NNE,22,0.0,0.0,75,0.00,,,0.00,open2300-1.11,2013-02-24 22:57:00,
2013-02-25 01:17:00,55.4,47.6,28.83,NNE,22,0.0,0.0,75,0.00,,,0.00,open2300-1.11,2013-02-24 23:17:00,
2013-02-25 01:32:00,55.4,48.2,28.83,NNE,22,0.0,0.0,77,0.00,,,0.00,open2300-1.11,2013-02-24 23:32:00,
2013-02-25 01:52:00,55.2,48.1,28.83,NNE,22,0.0,0.0,77,0.00,,,0.00,open2300-1.11,2013-02-24 23:52:00,
2013-02-25 02:27:00,55.6,48.4,28.82,NNE,22,0.0,0.0,77,0.00,,,0.00,open2300-1.11,2013-02-25 00:27:00,
2013-02-25 02:32:00,55.6,48.4,28.82,NNE,22,0.0,0.0,77,0.00,,,0.00,open2300-1.11,2013-02-25 00:32:00,
2013-02-25 02:42:00,55.8,48.2,28.81,NNE,22,0.0,0.0,76,0.00,,,0.00,open2300-1.11,2013-02-25 00:42:00,
2013-02-25 03:02:00,55.9,48.1,28.81,NNE,22,0.0,0.0,75,0.00,,,0.00,open2300-1.11,2013-02-25 01:02:00,
2013-02-25 03:07:00,55.9,48.1,28.80,NNE,22,0.0,0.0,75,0.00,,,0.00,open2300-1.11,2013-02-25 01:07:00,
2013-02-25 03:27:00,55.9,48.1,28.80,NNE,22,0.0,0.0,75,0.00,,,0.00,open2300-1.11,2013-02-25 01:27:00,
2013-02-25 03:47:00,55.8,47.9,28.80,NNE,22,0.0,0.0,75,0.00,,,0.00,open2300-1.11,2013-02-25 01:47:00,
2013-02-25 03:52:00,55.6,47.7,28.80,NNE,22,0.0,0.0,75,0.00,,,0.00,open2300-1.11,2013-02-25 01:52:00,
2013-02-25 03:57:00,55.6,48.1,28.80,NNE,22,0.0,0.0,76,0.00,,,0.00,open2300-1.11,2013-02-25 01:57:00,
2013-02-25 04:02:00,55.4,47.9,28.80,NNE,22,0.0,0.0,76,0.00,,,0.00,open2300-1.11,2013-02-25 02:02:00,
2013-02-25 04:17:00,55.2,47.7,28.80,NNE,22,0.0,0.0,76,0.00,,,0.00,open2300-1.11,2013-02-25 02:17:00,
2013-02-25 04:22:00,55.2,47.7,28.80,NNE,22,0.0,0.0,76,0.00,,,0.00,open2300-1.11,2013-02-25 02:22:00,
2013-02-25 04:27:00,55.2,47.7,28.80,NNE,22,0.0,0.0,76,0.00,,,0.00,open2300-1.11,2013-02-25 02:27:00,
2013-02-25 04:37:00,55.2,48.1,28.80,NNE,22,0.0,0.0,77,0.00,,,0.00,open2300-1.11,2013-02-25 02:37:00,
2013-02-25 04:52:00,55.2,48.4,28.80,NNE,22,0.0,0.0,78,0.00,,,0.00,open2300-1.11,2013-02-25 02:52:00,
2013-02-25 05:07:00,55.2,48.8,28.80,NNE,22,0.0,0.0,79,0.00,,,0.00,open2300-1.11,2013-02-25 03:07:00,
2013-02-25 05:12:00,55.2,48.8,28.80,NNE,22,0.0,0.0,79,0.00,,,0.00,open2300-1.11,2013-02-25 03:12:00,
2013-02-25 05:27:00,55.0,48.6,28.81,NNE,22,0.0,0.0,79,0.00,,,0.00,open2300-1.11,2013-02-25 03:27:00,
2013-02-25 05:47:00,55.0,49.3,28.81,NNE,22,0.0,0.7,81,0.00,,,0.00,open2300-1.11,2013-02-25 03:47:00,
2013-02-25 06:12:00,54.7,49.3,28.81,NNE,22,0.0,0.0,82,0.00,,,0.00,open2300-1.11,2013-02-25 04:12:00,
2013-02-25 06:17:00,54.5,49.4,28.81,NNE,22,0.0,0.0,83,0.00,,,0.00,open2300-1.11,2013-02-25 04:17:00,
2013-02-25 06:37:00,54.3,49.2,28.81,NNE,22,0.0,0.0,83,0.00,,,0.00,open2300-1.11,2013-02-25 04:37:00,
2013-02-25 06:57:00,54.1,49.4,28.82,NNE,22,0.0,0.0,84,0.00,,,0.00,open2300-1.11,2013-02-25 04:57:00,
2013-02-25 13:12:00,66.4,54.2,28.78,North,0,0.0,0.0,65,0.00,,,0.00,open2300-1.11,2013-02-25 11:12:00,
2013-02-25 13:27:00,66.7,53.7,28.77,NNE,22,0.0,0.0,63,0.00,,,0.00,open2300-1.11,2013-02-25 11:27:00,
2013-02-25 13:32:00,66.4,53.4,28.77,North,0,0.0,0.0,63,0.00,,,0.00,open2300-1.11,2013-02-25 11:32:00,
2013-02-25 13:47:00,65.5,53.4,28.77,NNE,22,0.0,0.0,65,0.00,,,0.00,open2300-1.11,2013-02-25 11:47:00,
2013-02-25 14:02:00,64.9,52.8,28.77,NNE,22,0.0,0.0,65,0.00,,,0.00,open2300-1.11,2013-02-25 12:02:00,
2013-02-25 14:37:00,64.2,52.2,28.76,North,0,0.0,0.0,65,0.00,,,0.00,open2300-1.11,2013-02-25 12:37:00,
2013-02-25 15:02:00,64.0,52.4,28.75,North,0,0.0,0.0,66,0.00,,,0.00,open2300-1.11,2013-02-25 13:02:00,
2013-02-25 15:12:00,63.7,52.1,28.75,North,0,0.0,0.0,66,0.00,,,0.00,open2300-1.11,2013-02-25 13:12:00,
2013-02-25 15:17:00,63.7,52.1,28.75,NNE,22,0.0,0.0,66,0.00,,,0.00,open2300-1.11,2013-02-25 13:17:00,
2013-02-25 15:22:00,63.7,52.1,28.75,NNE,22,0.0,0.0,66,0.00,,,0.00,open2300-1.11,2013-02-25 13:22:00,
2013-02-25 15:43:00,63.3,51.7,28.75,NNE,22,0.0,0.0,66,0.00,,,0.00,open2300-1.11,2013-02-25 13:43:00,
2013-02-25 15:57:00,63.3,51.7,28.75,NNE,22,0.0,0.0,66,0.00,,,0.00,open2300-1.11,2013-02-25 13:57:00,
2013-02-25 16:02:00,63.1,51.5,28.75,NNE,22,0.0,0.0,66,0.00,,,0.00,open2300-1.11,2013-02-25 14:02:00,
2013-02-25 16:27:00,62.8,51.6,28.75,NNE,22,0.0,0.0,67,0.00,,,0.00,open2300-1.11,2013-02-25 14:27:00,
2013-02-25 16:52:00,63.1,52.4,28.74,North,0,0.0,0.0,68,0.00,,,0.00,open2300-1.11,2013-02-25 14:52:00,
2013-02-25 16:57:00,63.3,52.6,28.74,North,0,0.0,0.0,68,0.00,,,0.00,open2300-1.11,2013-02-25 14:57:00,
2013-02-25 17:02:00,63.9,52.7,28.73,NNE,22,0.0,0.0,67,0.00,,,0.00,open2300-1.11,2013-02-25 15:02:00,
2013-02-25 17:12:00,63.9,52.7,28.73,North,0,0.0,0.0,67,0.00,,,0.00,open2300-1.11,2013-02-25 15:12:00,
2013-02-25 17:17:00,63.7,52.1,28.73,NNE,22,0.0,0.0,66,0.00,,,0.00,open2300-1.11,2013-02-25 15:17:00,
2013-02-25 17:42:00,62.6,51.5,28.72,NNE,22,0.0,0.0,67,0.00,,,0.00,open2300-1.11,2013-02-25 15:42:00,
2013-02-25 17:57:00,61.7,50.2,28.72,NNE,22,0.0,0.0,66,0.00,,,0.00,open2300-1.11,2013-02-25 15:57:00,
2013-02-25 18:37:00,59.9,49.3,28.73,NNE,22,0.0,0.0,68,0.00,,,0.00,open2300-1.11,2013-02-25 16:37:00,
2013-02-25 18:57:00,59.5,49.4,28.75,NNE,22,0.0,0.0,69,0.00,,,0.00,open2300-1.11,2013-02-25 16:57:00,
2013-02-25 19:17:00,59.2,49.5,28.74,North,0,0.0,0.0,70,0.00,,,0.00,open2300-1.11,2013-02-25 17:17:00,
2013-02-25 22:37:00,58.3,50.7,28.76,SE,135,0.0,0.0,76,0.00,,,0.00,open2300-1.11,2013-02-25 20:37:00,
2013-02-25 22:47:00,58.3,51.1,28.75,SE,135,0.0,0.0,77,0.00,,,0.00,open2300-1.11,2013-02-25 20:47:00,
2013-02-25 23:02:00,58.3,51.1,28.75,SSE,157,0.0,0.0,77,0.00,,,0.00,open2300-1.11,2013-02-25 21:02:00,
2013-02-25 23:22:00,58.3,50.7,28.75,SSE,157,0.0,0.0,76,0.00,,,0.00,open2300-1.11,2013-02-25 21:22:00,